This is the latest recevied weather packets stored in our database for station/object KD2DXJ. If no packets are shown the sender has not sent any weather packets the latest 10 day(s).
| Time | Temp. | Humidity | Pressure | Rain* | Wind** | Luminosity | Snow |
|---|---|---|---|---|---|---|---|
| 1777579556 | 9.44° C | 78% | 1009.5 hPa | 0 mm | - | 174 W/m² | - |
| 1777579250 | 9.44° C | 77% | 1009.3 hPa | 0 mm | - | 224 W/m² | - |
| 1777578946 | 8.89° C | 81% | 1009.4 hPa | 0 mm | - | 240 W/m² | - |
| 1777578641 | 8.33° C | 80% | 1009.2 hPa | 0 mm | - | 115 W/m² | - |
| 1777578341 | 8.33° C | 81% | 1009.1 hPa | 0 mm | - | 119 W/m² | - |
| 1777578038 | 8.33° C | 81% | 1008.9 hPa | 0 mm | - | 107 W/m² | - |
| 1777577738 | 8.89° C | 81% | 1008.7 hPa | 0 mm | - | 150 W/m² | - |
| 1777577435 | 8.89° C | 81% | 1008.6 hPa | 0 mm | - | 163 W/m² | - |
| 1777577132 | 8.89° C | 81% | 1008.5 hPa | 0 mm | - | 219 W/m² | - |
| 1777576828 | 8.89° C | 82% | 1008.5 hPa | 0 mm | - | 239 W/m² | - |
| 1777576527 | 8.33° C | 83% | 1008.5 hPa | 0 mm | - | 275 W/m² | - |
| 1777576224 | 7.78° C | 85% | 1008.5 hPa | 0 mm | - | 223 W/m² | - |
| 1777575920 | 7.78° C | 85% | 1008.6 hPa | 0 mm | - | 93 W/m² | - |
| 1777575616 | 7.78° C | 85% | 1008.6 hPa | 0 mm | - | 76 W/m² | - |
| 1777575312 | 7.78° C | 86% | 1008.5 hPa | 0 mm | - | 85 W/m² | - |
| 1777575008 | 7.78° C | 84% | 1008.7 hPa | 0 mm | - | 82 W/m² | - |
| 1777574704 | 7.78° C | 84% | 1008.7 hPa | 0 mm | - | 150 W/m² | - |
| 1777574402 | 8.33° C | 85% | 1008.6 hPa | 0 mm | - | 98 W/m² | - |
| 1777574097 | 8.33° C | 83% | 1008.6 hPa | 0 mm | - | 126 W/m² | - |
| 1777573792 | 8.33° C | 85% | 1008.7 hPa | 0 mm | - | 126 W/m² | - |
| 1777573488 | 8.33° C | 85% | 1008.4 hPa | 0 mm | - | 140 W/m² | - |
| 1777573184 | 7.78° C | 85% | 1008.4 hPa | 0 mm | - | 183 W/m² | - |
| 1777572881 | 7.78° C | 86% | 1008.6 hPa | 0 mm | - | 159 W/m² | - |
| 1777572577 | 7.22° C | 87% | 1008.5 hPa | 0 mm | - | 136 W/m² | - |
| 1777572272 | 7.22° C | 88% | 1008.6 hPa | 0 mm | - | 129 W/m² | - |
* Rain latest hour (hover to see other rain measurements)
** Current wind speed in m/s (hover to see current wind gust speed)